STARLINK-34130

Last updated on Sat Aug 02 2025 00:02:05 GMT+0000 (Coordinated Universal Time)

1 64736U 25144N 25213.58335648 -.01599895 00000+0 -36744-1 0 9999 2 64736 53.1599 124.7262 0001030 86.3708 288.7661 15.45343010 6099
UTC large
Height (km)
Speed (km/s)
/
Latitude / Longitude
Inclination (degrees)
Orbital Period (minutes)
Azimuth
Elevation
Range (km)
Doppler Factor

Next 0 passes for location: London (51.5072 / 0.1276)

Sorry there are no passes over London.